STARLINK-30056 (57622 NORAD) Tracking and Keplerian Element Data

This shows tracking and keplerian element data for the satellite.

Feedback or suggestion? Click here.




ElementValue
Catalog57622
NameSTARLINK-30056
Epoch Orbit376
Epoch Day239.16667824
Epoch Year2023
RAAN77.74
Inclination43.0008
Eccentricity0.0002351
Argument of Perigee227.1125
Mean Anonmoly27.881
Mean Motion15.74489251
Decay Rate-0.00878784
L11 57622U 23119W 23239.16667824 -.00878784 00000+0 -64946-2 0 9991
L22 57622 43.0008 77.7400 0002351 227.1125 27.8810 15.74489251 3763



Live tracking and technical data element details for STARLINK-30056 (NORAD 57622). STARLINK-30056 can be tracked NOW for your location showing map with azimuth and elevation plus other details from your city location.







IsCatalogInMostPopularTable: catalog: 57622, numindb: 5
Update: records affected: 1



GetName: 57622 STARLINK-30056

Hit Count: updated at: Tue, 26 Sep 2023 12:11:27 GMT